{"data":{"norad_id":56299,"intl_designator":"2023-056P","name":"STARLINK-30108","alt_names":[],"object_type":"PAYLOAD","status":"ACTIVE","operator":null,"country":"US","launch_date":"2023-04-19","launch_site_code":"AFETR","launch_vehicle":null,"mission":null,"orbit_class":"UNKNOWN","rcs_meters":null,"size_class":null,"mass_kg":null,"dimensions":null,"purposes":["comms"],"wikipedia_slug":null,"has_3d_model":false,"image_url":null,"decayed_at":null,"tle_current":{"epoch":"2026-05-25T05:26:31.250976Z","epoch_age_seconds":51454,"freshness":"FRESH","line1":"1 56299U 23056P   26145.22675059 -.00002269  00000+0 -72948-4 0  9995","line2":"2 56299  43.0008 125.4664 0000776 291.6153  68.4616 15.27585586171937","mean_motion":15.27585586,"eccentricity":7.76e-5,"inclination_deg":43.0008,"raan_deg":125.4664,"arg_perigee_deg":291.6153,"mean_anomaly_deg":68.4616,"bstar":-7.2948e-5,"rev_number":17193,"period_min":94.266404003631,"perigee_km":482.49994285399,"apogee_km":483.56479634015,"semimajor_km":6861.1693695971,"source":"CELESTRAK","updated_at":"2026-05-25T13:38:17.966778Z"}}}